TimeEST,TemperatureF,Dew PointF,Humidity,Sea Level PressureIn,VisibilityMPH,Wind Direction,Wind SpeedMPH,Gust SpeedMPH,PrecipitationIn,Events,Conditions,WindDirDegrees,DateUTC
12:14 AM,23.0,15.4,73,30.03,10.0,WNW,9.2,-,N/A,,Overcast,290,2013-03-03 05:14:00
12:34 AM,23.0,14.9,71,30.03,10.0,WNW,8.1,-,N/A,Snow,Light Snow,300,2013-03-03 05:34:00
1:14 AM,22.6,14.9,72,30.03,10.0,NW,8.1,-,N/A,Snow,Light Snow,310,2013-03-03 06:14:00
1:35 AM,22.5,14.9,73,30.03,10.0,NW,6.9,-,N/A,,Overcast,320,2013-03-03 06:35:00
1:54 AM,22.3,14.9,73,30.03,10.0,NW,6.9,-,N/A,Snow,Light Snow,320,2013-03-03 06:54:00
2:14 AM,22.1,14.9,74,30.03,10.0,NNW,6.9,-,N/A,Snow,Light Snow,330,2013-03-03 07:14:00
2:35 AM,22.1,14.7,73,30.02,10.0,NNW,5.8,-,N/A,Snow,Light Snow,330,2013-03-03 07:35:00
2:54 AM,21.6,14.5,74,30.02,10.0,NW,4.6,-,N/A,,Overcast,320,2013-03-03 07:54:00
3:15 AM,20.1,13.6,76,30.01,10.0,WNW,5.8,-,N/A,,Overcast,300,2013-03-03 08:15:00
3:34 AM,18.9,12.9,78,30.01,10.0,WNW,5.8,-,N/A,,Scattered Clouds,300,2013-03-03 08:34:00
3:54 AM,17.6,12.2,79,30.01,10.0,WNW,5.8,-,N/A,,Clear,300,2013-03-03 08:54:00
4:15 AM,17.6,12.6,81,30.01,10.0,WNW,5.8,-,N/A,,Mostly Cloudy,300,2013-03-03 09:15:00
4:34 AM,17.6,12.7,81,30.01,10.0,NW,5.8,-,N/A,,Overcast,310,2013-03-03 09:34:00
4:54 AM,17.4,12.4,81,30.01,10.0,NW,5.8,-,N/A,Snow,Light Snow,320,2013-03-03 09:54:00
5:15 AM,17.2,12.2,81,30.02,7.0,NW,5.8,-,N/A,Snow,Light Snow,310,2013-03-03 10:15:00
5:34 AM,17.1,12.0,81,30.01,10.0,NW,5.8,-,N/A,,Mostly Cloudy,310,2013-03-03 10:34:00
5:54 AM,17.4,12.2,80,30.01,10.0,NW,5.8,-,N/A,Snow,Light Snow,310,2013-03-03 10:54:00
6:15 AM,18.1,12.9,80,30.01,10.0,NW,6.9,-,N/A,,Overcast,320,2013-03-03 11:15:00
6:34 AM,17.8,12.0,78,30.02,10.0,NW,5.8,-,N/A,,Mostly Cloudy,320,2013-03-03 11:34:00
6:54 AM,16.9,11.3,79,30.02,10.0,NW,4.6,-,N/A,,Scattered Clouds,310,2013-03-03 11:54:00
7:14 AM,16.7,11.3,79,30.02,10.0,NW,4.6,-,N/A,,Clear,310,2013-03-03 12:14:00
7:34 AM,16.7,11.3,79,30.03,10.0,WNW,5.8,-,N/A,,Clear,290,2013-03-03 12:34:00
7:55 AM,17.8,12.2,79,30.03,10.0,WNW,6.9,-,N/A,,Clear,290,2013-03-03 12:55:00
8:14 AM,18.7,12.7,78,30.03,10.0,NW,8.1,-,N/A,,Clear,310,2013-03-03 13:14:00
8:34 AM,19.9,12.7,74,30.03,10.0,NW,9.2,-,N/A,,Clear,310,2013-03-03 13:34:00
8:55 AM,20.8,12.7,71,30.03,10.0,NW,10.4,-,N/A,,Clear,310,2013-03-03 13:55:00
9:14 AM,21.6,12.9,69,30.02,10.0,WNW,11.5,-,N/A,,Clear,300,2013-03-03 14:14:00
9:34 AM,21.9,12.9,68,30.02,10.0,NW,9.2,-,N/A,,Scattered Clouds,320,2013-03-03 14:34:00
9:55 AM,23.5,13.6,66,30.02,10.0,WNW,10.4,-,N/A,,Mostly Cloudy,300,2013-03-03 14:55:00
10:14 AM,23.2,12.7,64,30.02,10.0,NW,11.5,18.4,N/A,,Mostly Cloudy,320,2013-03-03 15:14:00
10:34 AM,23.5,12.9,64,30.02,10.0,NW,11.5,-,N/A,,Overcast,310,2013-03-03 15:34:00
10:55 AM,24.3,12.9,62,30.01,10.0,NW,8.1,-,N/A,,Overcast,310,2013-03-03 15:55:00
11:14 AM,24.4,12.4,60,30.01,10.0,NW,11.5,17.3,N/A,,Overcast,320,2013-03-03 16:14:00
11:35 AM,25.2,12.6,59,30.01,10.0,NW,9.2,-,N/A,,Overcast,310,2013-03-03 16:35:00
11:54 AM,25.9,12.6,57,30.01,10.0,NW,10.4,-,N/A,,Overcast,320,2013-03-03 16:54:00
12:14 PM,25.2,12.0,58,30.01,10.0,NW,11.5,-,N/A,,Overcast,310,2013-03-03 17:14:00
12:35 PM,25.7,12.6,58,30.00,10.0,NW,10.4,-,N/A,,Overcast,310,2013-03-03 17:35:00
12:54 PM,25.7,12.0,56,30.00,10.0,NW,6.9,16.1,N/A,,Overcast,320,2013-03-03 17:54:00
1:14 PM,26.6,13.3,57,29.99,10.0,NNW,11.5,-,N/A,,Mostly Cloudy,330,2013-03-03 18:14:00
1:35 PM,26.8,12.0,54,29.99,10.0,NNW,9.2,17.3,N/A,,Scattered Clouds,340,2013-03-03 18:35:00
1:54 PM,27.3,13.5,56,29.98,10.0,NNW,9.2,16.1,N/A,,Scattered Clouds,330,2013-03-03 18:54:00
2:14 PM,27.1,13.1,56,29.98,10.0,NW,10.4,-,N/A,,Mostly Cloudy,310,2013-03-03 19:14:00
2:34 PM,27.7,13.5,55,29.98,10.0,NNW,10.4,16.1,N/A,,Overcast,330,2013-03-03 19:34:00
2:54 PM,28.2,14.4,56,29.98,10.0,NNW,9.2,-,N/A,,Overcast,330,2013-03-03 19:54:00
3:14 PM,28.2,14.5,57,29.98,10.0,NW,10.4,16.1,N/A,,Overcast,320,2013-03-03 20:14:00
3:34 PM,27.5,14.0,57,29.98,10.0,NW,9.2,-,N/A,,Overcast,310,2013-03-03 20:34:00
3:55 PM,27.3,13.6,56,29.98,10.0,NNW,12.7,-,N/A,,Overcast,330,2013-03-03 20:55:00
4:14 PM,27.3,13.1,55,29.98,10.0,NW,9.2,-,N/A,,Overcast,320,2013-03-03 21:14:00
4:55 PM,28.0,12.7,53,29.98,10.0,NW,11.5,-,N/A,,Mostly Cloudy,310,2013-03-03 21:55:00
5:14 PM,28.0,12.4,52,29.99,10.0,North,5.8,-,N/A,,Scattered Clouds,350,2013-03-03 22:14:00
5:34 PM,27.7,12.2,52,29.99,10.0,NNW,4.6,-,N/A,,Clear,330,2013-03-03 22:34:00
5:55 PM,27.1,11.8,53,29.99,10.0,North,4.6,-,N/A,,Clear,350,2013-03-03 22:55:00
6:14 PM,26.6,11.8,54,29.99,10.0,NW,5.8,-,N/A,,Clear,320,2013-03-03 23:14:00
6:35 PM,26.1,12.0,55,30.00,10.0,Calm,Calm,-,N/A,,Clear,0,2013-03-03 23:35:00
6:55 PM,25.7,11.8,56,30.00,10.0,Calm,Calm,-,N/A,,Clear,0,2013-03-03 23:55:00
7:14 PM,25.3,11.7,56,30.00,10.0,Calm,Calm,-,N/A,,Clear,0,2013-03-04 00:14:00
7:35 PM,25.0,12.2,58,30.01,10.0,Calm,Calm,-,N/A,,Clear,0,2013-03-04 00:35:00
7:54 PM,24.8,12.2,59,30.01,10.0,Calm,Calm,-,N/A,,Clear,0,2013-03-04 00:54:00
8:14 PM,23.9,12.0,61,30.01,10.0,Calm,Calm,-,N/A,,Clear,0,2013-03-04 01:14:00
8:35 PM,22.8,12.6,65,30.02,10.0,Calm,Calm,-,N/A,,Clear,0,2013-03-04 01:35:00
8:54 PM,23.0,13.3,66,30.02,10.0,Calm,Calm,-,N/A,,Clear,0,2013-03-04 01:54:00
9:14 PM,21.9,13.1,69,30.03,10.0,West,3.5,-,N/A,,Clear,270,2013-03-04 02:14:00
9:35 PM,20.5,12.9,73,30.02,10.0,West,3.5,-,N/A,,Clear,260,2013-03-04 02:35:00
9:54 PM,19.0,12.9,77,30.02,10.0,WSW,4.6,-,N/A,,Clear,250,2013-03-04 02:54:00
10:14 PM,18.5,13.1,79,30.02,10.0,West,5.8,-,N/A,,Clear,260,2013-03-04 03:14:00
10:35 PM,18.1,12.6,79,30.02,10.0,West,4.6,-,N/A,,Clear,270,2013-03-04 03:35:00
10:54 PM,19.9,13.1,75,30.02,10.0,WNW,3.5,-,N/A,,Clear,300,2013-03-04 03:54:00
11:14 PM,21.2,13.5,72,30.02,10.0,WNW,3.5,-,N/A,,Clear,300,2013-03-04 04:14:00
11:35 PM,17.4,11.1,76,30.03,10.0,West,5.8,-,N/A,,Clear,270,2013-03-04 04:35:00
11:54 PM,19.4,12.4,74,30.03,10.0,West,4.6,-,N/A,,Clear,270,2013-03-04 04:54:00